Flag for Mozambique Weather past 2 weeks in Nampula, Mozambique

Now
79 °F

Passing clouds.


Feels Like: 80 °F
Forecast: 59 / 84 °F
Wind: 3 mph from East

Location: Nampula Airport

Current Time: Jul 31, 2015 at 8:08:04 PM

Latest Report: Jul 31, 2015 at 7:00 PM


Visibility: N/A

Pressure: 30.04 "Hg

Humidity: 58%

Dew point: 63 °F

Location of NampulaLocation

Historic Weather in Nampula — Graph

°F

Nampula temperature yesterday

Maximum temperature yesterday: 86 °F (at 1:00 PM)
Minimum temperature yesterday: 66 °F (at 5:00 AM)
Average temperature yesterday: 75 °F

Past Weeks' High & Low Weather Summary

 TemperatureHumidityPressure
High88 °F (Jul 31, 2:00 PM)100% (Jul 18, 7:00 AM)30.21 "Hg (Jul 18, 7:00 AM)
Low63 °F (Jul 17, 3:00 AM)28% (Jul 25, 11:00 AM)29.98 "Hg (Jul 26, 3:00 PM)
Average74 °F68%30.11 "Hg
* Reported Jul 17 1:00 AM — Jul 31 7:00 PM, Nampula, Weather by CustomWeather, © 2015

Note: Actual official high and low records may vary slightly from our data, if they occured in-between our weather recording intervals... More about our weather records

Advertising

Nampula weather history for previous 24 hours

 ConditionsComfort  
Time TempWeatherWind HumidityBarometerVisibility
7:00 PM
Fri, Jul 31
79 °FPassing clouds.3 mph58%30.04 "HgN/A
6:00 PM81 °FPassing clouds.2 mph48%29.98 "HgN/A
5:00 PM82 °FScattered clouds.3 mph45%29.98 "HgN/A
4:00 PM86 °FScattered clouds.2 mph38%29.98 "HgN/A
3:00 PM88 °FScattered clouds.6 mph33%30.01 "HgN/A
2:00 PM88 °FScattered clouds.2 mph33%30.01 "HgN/A
11:00 AM82 °FSunny.6 mph48%30.07 "Hg10 mi
10:00 AM79 °FSunny.8 mph58%30.09 "Hg10 mi
9:00 AM73 °FSunny.8 mph78%30.09 "Hg10 mi
8:00 AM70 °FSunny.9 mph83%30.09 "Hg10 mi
6:00 AM64 °FPartly sunny.8 mph100%30.04 "HgN/A
5:00 AM64 °FClear.8 mph100%30.04 "Hg10 mi
1:00 AM68 °FPassing clouds.6 mph83%30.07 "HgN/A
12:00 AM68 °FPassing clouds.10 mph88%30.07 "HgN/A
11:00 PM
Thu, Jul 30
70 °FPassing clouds.9 mph83%30.07 "HgN/A
10:00 PM72 °FClear.8 mph78%30.07 "Hg10 mi
9:00 PM73 °FClear.8 mph69%30.07 "Hg10 mi
8:00 PM73 °FClear.9 mph74%30.07 "Hg10 mi
Weather by CustomWeather, © 2015

See weather overviewHow to use our weather pages